AirNav   Air Wisconsin pilot careers
 
 1597 users online  

1TX4 New Gulf Airport
New Gulf, Texas, USA

GOING TO NEW GULF?


FAA INFORMATION EFFECTIVE 21 JUNE 2018

Location

FAA Identifier: 1TX4
Lat/Long: 29-16-24.0250N / 095-53-12.8500W
29-16.400417N / 095-53.214167W
29.2733403 / -95.8869028
(estimated)
Elevation: 100 ft. / 30 m (estimated)
From city: 2 miles E of NEW GULF, TX
Time zone: UTC -5 (UTC -6 during Standard Time)
Zip code: 77420

Airport Operations

Airport use: Private use. Permission required prior to landing
Activation date: 08/2003
Control tower: no
ARTCC: HOUSTON CENTER
FSS: MONTGOMERY COUNTY FLIGHT SERVICE STATION
Attendance: UNATNDD
Segmented circle: no

Airport Communications

WX AWOS-3 at ARM (14 nm W): 118.475 (979-532-2791)
WX AWOS-3 at BYY (18 nm S): 118.075 (979-323-1801)

Nearby radio navigation aids

VOR radial/distance  VOR name  Freq  Var
ELAr128/32.4EAGLE LAKE VOR/DME116.4008E
PSXr028/37.6PALACIOS VORTAC117.3008E
HUBr229/39.3HOBBY VOR/DME117.1005E

 
NDB name  Hdg/Dist  Freq  Var  ID
WHARTON079/13.924506EARM .- .-. --

Airport Services

Runway Information

Runway 15/33

Dimensions: 4300 x 75 ft. / 1311 x 23 m
Surface: asphalt, in poor condition
RY HAS LOOSE AGGREGATE, CRACKING & UNEVEN PATCHES.
Runway edge markings: NO RY NR. RY MARKINGS 4 INCHES WIDE, NSTD SPACING, DO NOT EXTEND FULL RY LENGTH & CNTRLN OFFSET APPROXLY 12 FT ON RY END.
RUNWAY 15  RUNWAY 33
Latitude: 29-16.732500N29-16.068333N
Longitude: 095-53.356667W095-53.071667W
Elevation: 100.0 ft.100.0 ft.
Traffic pattern: leftleft
Runway heading: 159 true339 true
Markings: NSTD, in poor conditionNSTD, in poor condition
Obstructions: 12 ft. tree, 220 ft. from runway, 33 ft. left of centerline, 1:1 slope to clear
5 FT FENCE ON CNTRLN 98 FT FM THLD, ROAD ON RY EXTENDING BYD THLD.
27 ft. pline, 336 ft. from runway, 62 ft. left of centerline, 5:1 slope to clear
5 FT FENCE PARALLEL TO RY 40 FT FM CNTRLN EXTENDING 117 FT FM THLD.

Airport Ownership and Management from official FAA records

Ownership: Privately-owned
Owner: H & L NEW GULF
132 AVE G
NEW GULF, TX 77462
Phone 979-429-6955
Manager: BOB JACKSON
HANGAR 1
NEW GULF, TX 77462
Phone 979-429-6955

Airport Operational Statistics

Aircraft operations: 100/year *
100% transient general aviation
* for 12-month period ending 21 May 2011

Additional Remarks

LIVESTOCK ON FIELD AND VEHICULAR TRAFFIC ON RY.

Instrument Procedures

There are no published instrument procedures at 1TX4.

Some nearby airports with instrument procedures:

KARM - Wharton Regional Airport (14 nm W)
KBYY - Bay City Regional Airport (18 nm S)
KSGR - Sugar Land Regional Airport (24 nm NE)
KLBX - Texas Gulf Coast Regional Airport (24 nm SE)
KAXH - Houston Southwest Airport (26 nm NE)
 
Loc | Ops | Rwys | IFR | FBO | Links
Com | Nav | Svcs | Stats | Notes

AirNav Hotels Sweepstakes
 
Area around 1TX4 (New Gulf Airport)
 
Road maps at: MapQuest Bing Google
 
Aerial photo
WARNING: Photo may not be current or correct
Aerial photo of 1TX4 (New Gulf Airport)
Taken in September 2007

Do you have a better or more recent aerial photo of New Gulf Airport that you would like to share? If so, please send us your photo.

 
Sectional chart

 
Airport distance calculator
Flying to New Gulf Airport? Find the distance to fly.

From to 1TX4

Sunrise and sunset
Times for 21-Jun-2018
 Local
(UTC-5)
 Zulu
(UTC)
Morning civil twilight05:5810:58
Sunrise06:2611:26
Sunset20:2501:25
Evening civil twilight20:5201:52

Current date and time
Zulu (UTC)  21-Jun-2018 15:02:06
Local (UTC-5)  21-Jun-2018 10:02:06
 
METAR
KARM 
14nm W 
211455Z AUTO 11005KT 10SM VCTS CLR 25/22 A2994 RMK AO2 LTG DSNT E THRU SW T02450220
KBYY 
18nm S 
211455Z AUTO 04004KT 2 1/2SM +RA SCT024 BKN034 OVC060 23/23 A2993 RMK AO2 VIS 1 1/2V4 P0102 T02370236
KLBX 
24nm SE 
211453Z AUTO 32006KT 4SM TSRA BR OVC016 24/22 A2993 RMK AO2 LTG DSNT SW-NW RAE09B22 TSE1356B04E19B32 SLP136 P0009 60062 T02390222 53018
KSGR 
24nm NE 
211453Z 10005KT 9SM FEW007 SCT016 BKN025 28/26 A2993 RMK AO2 LTG DSNT S RAE19 SLP135 P0000 60001 T02830256 53012
KAXH 
26nm NE 
211455Z AUTO 00000KT 7SM RA SCT017 BKN022 OVC038 25/24 A2994 RMK AO2 LTG DSNT S THRU W P0003 60005 T02520243
TAF
KLBX 
24nm SE 
211419Z 2114/2212 VRB06KT P6SM VCTS SCT015CB BKN035 BKN080 TEMPO 2114/2116 VRB20KT 2SM TSRA BKN015CB FM211600 17006KT P6SM VCSH SCT025 SCT035 BKN250 FM212000 18008KT P6SM SCT045 FM220300 18003KT P6SM FEW040 FM221000 21003KT P6SM SCT015
KSGR 
24nm NE 
211246Z 2113/2212 05005KT P6SM VCTS SCT015CB BKN025 BKN035 FM211700 17006KT P6SM VCSH SCT035 BKN050 FM212000 19007KT P6SM SCT040 BKN250 FM220300 18004KT P6SM FEW045 FM220900 20003KT P6SM SCT012
NOTAMs
Click for the latest NOTAMs
NOTAMs are issued by the DoD/FAA and will open in a separate window not controlled by AirNav.

 

 
 

Would you like to see your business listed on this page?

 If your business provides an interesting product or service to pilots, flight crews, aircraft, or users of the New Gulf Airport, you should consider listing it here.  To start the listing process, click on the button below
 
Add a business
 

Other Pages about New Gulf Airport

Update a link
 
Copyright © AirNav, LLC. All rights reserved. Privacy Policy  Contact